Regional Weather Roundup
Issued by NWS Albany, NY

Home | Current Version | Previous Version | Text Only | Print | Product List | Glossary On
Versions: 1 2 3 4 5 6 7 8 9 10 11 12 13 14 15 16 17 18 19 20 21 22 23 24 25 26 27 28
000
ASUS41 KALY 231010
RWRALY

NEW YORK STATE HOURLY WEATHER ROUNDUP
NATIONAL WEATHER SERVICE ALBANY NY
600 AM EDT THU MAR 23 2017

NOTE: "FAIR" INDICATES FEW OR NO CLOUDS BELOW 12,000 FEET WITH NO
SIGNIFICANT WEATHER AND/OR NO OBSTRUCTIONS TO VISIBILITY.

NYZ032-033-038>043-046>054-057>066-NYZ062>081-082-084-231100-
EAST


CITY           SKY/WX    TMP DP  RH WIND       PRES   REMARKS
ALBANY         CLEAR     14   0  53 NW7       30.52R WCI   4
GLENS FALLS    CLEAR     16  -4  41 NW7       30.50R WCI   6
POUGHKEEPSIE   CLEAR     11   4  73 CALM      30.51R
NEWBURGH       CLEAR     16   7  67 W9        30.49R WCI   4
MONTGOMERY     CLEAR     12   4  70 W6        30.49R WCI   3
WHITE PLAINS   CLEAR     19   6  57 W3        30.48R
ISLIP          CLEAR     22   3  44 NW12      30.50R WCI  10
NEW YORK CITY  CLEAR     26   7  44 NW13      30.52R WCI  15
CENTRAL PARK   CLEAR     23   7  50 VRB6      30.54R WCI  16
$$

NYZ005>009-017-018-044>046-055-056-231100-
CENTRAL


CITY           SKY/WX    TMP DP  RH WIND       PRES   REMARKS
FULTON         CLEAR    N/A N/A N/A CALM      30.55R
SYRACUSE       PTCLDY    12   6  77 CALM      30.55R
ROME           CLEAR      3  -1  83 CALM      30.56R
ELMIRA         CLEAR     14   5  67 CALM      30.53R
BINGHAMTON     CLEAR     12   6  77 NW6       30.45R WCI   3
MONTICELLO     CLEAR     12   1  62 W6        30.44R WCI   3
$$

NYZ026>034-041>043-087-231100-
NORTH


CITY           SKY/WX    TMP DP  RH WIND       PRES   REMARKS
WATERTOWN      PTCLDY     3   1  91 CALM      30.55R
FORT DRUM      NOT AVBL
MASSENA        CLEAR      6  -2  69 SW5       30.54R WCI  -3
SARANAC LAKE   CLEAR    -18 -22  82 CALM      30.38R
PLATTSBURGH    CLEAR     13  -6  42 CALM      30.48R
$$

NYZ001>004-010>016-019>021-085-231100-
WEST


CITY           SKY/WX    TMP DP  RH WIND       PRES   REMARKS
NIAGARA FALLS  CLEAR     19  12  74 CALM      30.56R
BUFFALO        CLEAR     19  12  74 S3        30.55R
DUNKIRK        CLEAR     16  13  88 CALM      30.56S
JAMESTOWN      CLEAR     14   9  79 CALM      30.47R
WELLSVILLE     CLEAR     13   7  77 W5        30.46R WCI   5
ROCHESTER      CLEAR     16  10  77 SW3       30.56R
PENN YAN       CLEAR     18   7  62 W3        30.52R
$$

             KEY
       WCI = WIND CHILL INDEX
       VSB = VISIBILITY
       HX  = HEAT INDEX
$$




USA.gov is the U.S. government's official web portal to all federal, state and local government web resources and services.